Location: Dal�� Lhota
(48.7500°N, 14.0167°E)
Time: 10:56:00
(UTC+00:00)

SR - Visible Passes

Search period start: 03 August 2021 00:00
Search period end: 13 August 2021 00:00
Orbit: 577 x 877 km, 66.7° (Epoch: 02 August)

Date Brightness Start Highest point End Pass type
(mag) Time Alt. Az. Time Alt. Az. Time Alt. Az.
04 Aug ? 03:03:24 10° SE 03:06:49 16° ESE 03:10:07 10° ENE visible
06 Aug ? 03:04:05 10° SSE 03:08:53 27° ESE 03:13:27 10° NE visible
07 Aug ? 02:16:18 10° SE 02:19:26 15° ESE 02:22:29 10° ENE visible
08 Aug ? 03:05:36 10° S 03:11:04 45° ESE 03:16:14 10° NE visible
09 Aug ? 02:16:50 10° SSE 02:21:29 26° ESE 02:25:56 10° ENE visible
10 Aug ? 01:29:13 10° SE 01:32:03 14° ESE 01:34:49 10° ENE visible
10 Aug ? 03:07:38 10° SSW 03:13:23 75° ESE 03:18:45 10° NE visible
11 Aug ? 02:18:16 10° S 02:23:40 43° ESE 02:28:45 10° NE visible
12 Aug ? 01:30:08 12° SSE 01:34:05 24° ESE 01:38:24 10° ENE visible
12 Aug ? 03:10:06 10° SW 03:15:48 69° NW 03:21:08 10° NNE visible
